Year,Month,Day,Hour,Minute,Value (Times are PST for temperature in C)
2015,08,13,00,00,21.70
2015,08,13,00,01,21.70
2015,08,13,00,02,21.60
2015,08,13,00,03,21.60
2015,08,13,00,04,21.50
2015,08,13,00,05,21.50
2015,08,13,00,06,21.40
2015,08,13,00,07,21.40
2015,08,13,00,08,21.40
2015,08,13,00,09,21.40
2015,08,13,00,10,21.30
2015,08,13,00,11,21.30
2015,08,13,00,12,21.30
2015,08,13,00,13,21.30
2015,08,13,00,14,21.30
2015,08,13,00,15,21.30
2015,08,13,00,16,21.30
2015,08,13,00,17,21.20
2015,08,13,00,18,21.20
2015,08,13,00,19,21.20
2015,08,13,00,20,21.20
2015,08,13,00,21,21.20
2015,08,13,00,22,21.20
2015,08,13,00,23,21.20
2015,08,13,00,24,21.20
2015,08,13,00,25,21.20
2015,08,13,00,26,21.10
2015,08,13,00,27,21.10
2015,08,13,00,28,21.10
2015,08,13,00,29,21.10
2015,08,13,00,30,21.10
2015,08,13,00,31,21.10
2015,08,13,00,32,21.10
2015,08,13,00,33,21.00
2015,08,13,00,34,21.00
2015,08,13,00,35,21.00
2015,08,13,00,36,21.00
2015,08,13,00,37,21.00
2015,08,13,00,38,20.90
2015,08,13,00,39,20.90
2015,08,13,00,40,20.90
2015,08,13,00,41,20.90
2015,08,13,00,42,20.90
2015,08,13,00,43,20.80
2015,08,13,00,44,20.80
2015,08,13,00,45,20.80
2015,08,13,00,46,20.80
2015,08,13,00,47,20.70
2015,08,13,00,48,20.70
2015,08,13,00,49,20.70
2015,08,13,00,50,20.70
2015,08,13,00,51,20.60
2015,08,13,00,52,20.60
2015,08,13,00,53,20.60
2015,08,13,00,54,20.50
2015,08,13,00,55,20.50
2015,08,13,00,56,20.50
2015,08,13,00,57,20.40
2015,08,13,00,58,20.40
2015,08,13,00,59,20.40
2015,08,13,01,00,20.40
2015,08,13,01,01,20.40
2015,08,13,01,02,20.40
2015,08,13,01,03,20.40
2015,08,13,01,04,20.30
2015,08,13,01,05,20.30
2015,08,13,01,06,20.30
2015,08,13,01,07,20.30
2015,08,13,01,08,20.30
2015,08,13,01,09,20.30
2015,08,13,01,10,20.20
2015,08,13,01,11,20.20
2015,08,13,01,12,20.20
2015,08,13,01,13,20.20
2015,08,13,01,14,20.20
2015,08,13,01,15,20.10
2015,08,13,01,16,20.10
2015,08,13,01,17,20.10
2015,08,13,01,18,20.10
2015,08,13,01,19,20.00
2015,08,13,01,20,20.00
2015,08,13,01,21,20.00
2015,08,13,01,22,19.90
2015,08,13,01,23,19.90
2015,08,13,01,24,19.90
2015,08,13,01,25,19.90
2015,08,13,01,26,19.80
2015,08,13,01,27,19.80
2015,08,13,01,28,19.80
2015,08,13,01,29,19.70
2015,08,13,01,30,19.70
2015,08,13,01,31,19.70
2015,08,13,01,32,19.70
2015,08,13,01,33,19.70
2015,08,13,01,34,19.60
2015,08,13,01,35,19.60
2015,08,13,01,36,19.60
2015,08,13,01,37,19.60
2015,08,13,01,38,19.50
2015,08,13,01,39,19.50
2015,08,13,01,40,19.50
2015,08,13,01,41,19.40
2015,08,13,01,42,19.40
2015,08,13,01,43,19.40
2015,08,13,01,44,19.40
2015,08,13,01,45,19.40
2015,08,13,01,46,19.30
2015,08,13,01,47,19.30
2015,08,13,01,48,19.30
2015,08,13,01,49,19.40
2015,08,13,01,50,19.40
2015,08,13,01,51,19.40
2015,08,13,01,52,19.50
2015,08,13,01,53,19.50
2015,08,13,01,54,19.50
2015,08,13,01,55,19.50
2015,08,13,01,56,19.50
2015,08,13,01,57,19.50
2015,08,13,01,58,19.50
2015,08,13,01,59,19.50
2015,08,13,02,00,19.50
2015,08,13,02,01,19.50
2015,08,13,02,02,19.50
2015,08,13,02,03,19.40
2015,08,13,02,04,19.40
2015,08,13,02,05,19.40
2015,08,13,02,06,19.40
2015,08,13,02,07,19.40
2015,08,13,02,08,19.40
2015,08,13,02,09,19.40
2015,08,13,02,10,19.40
2015,08,13,02,11,19.40
2015,08,13,02,12,19.30
2015,08,13,02,13,19.30
2015,08,13,02,14,19.30
2015,08,13,02,15,19.30
2015,08,13,02,16,19.30
2015,08,13,02,17,19.30
2015,08,13,02,18,19.30
2015,08,13,02,19,19.30
2015,08,13,02,20,19.20
2015,08,13,02,21,19.20
2015,08,13,02,22,19.20
2015,08,13,02,23,19.20
2015,08,13,02,24,19.20
2015,08,13,02,25,19.20
2015,08,13,02,26,19.10
2015,08,13,02,27,19.10
2015,08,13,02,28,19.10
2015,08,13,02,29,19.10
2015,08,13,02,30,19.10
2015,08,13,02,31,19.10
2015,08,13,02,32,19.00
2015,08,13,02,33,19.00
2015,08,13,02,34,19.00
2015,08,13,02,35,19.00
2015,08,13,02,36,19.00
2015,08,13,02,37,18.90
2015,08,13,02,38,18.90
2015,08,13,02,39,18.90
2015,08,13,02,40,18.90
2015,08,13,02,41,18.80
2015,08,13,02,42,18.80
2015,08,13,02,43,18.80
2015,08,13,02,44,18.80
2015,08,13,02,45,18.80
2015,08,13,02,46,18.70
2015,08,13,02,47,18.70
2015,08,13,02,48,18.70
2015,08,13,02,49,18.70
2015,08,13,02,50,18.60
2015,08,13,02,51,18.60
2015,08,13,02,52,18.60
2015,08,13,02,53,18.60
2015,08,13,02,54,18.50
2015,08,13,02,55,18.50
2015,08,13,02,56,18.50
2015,08,13,02,57,18.40
2015,08,13,02,58,18.40
2015,08,13,02,59,18.40
2015,08,13,03,00,18.40
2015,08,13,03,01,18.30
2015,08,13,03,02,18.30
2015,08,13,03,03,18.30
2015,08,13,03,04,18.30
2015,08,13,03,05,18.20
2015,08,13,03,06,18.20
2015,08,13,03,07,18.20
2015,08,13,03,08,18.20
2015,08,13,03,09,18.10
2015,08,13,03,10,18.10
2015,08,13,03,11,18.10
2015,08,13,03,12,18.10
2015,08,13,03,13,18.00
2015,08,13,03,14,18.00
2015,08,13,03,15,18.00
2015,08,13,03,16,17.90
2015,08,13,03,17,17.90
2015,08,13,03,18,17.90
2015,08,13,03,19,17.90
2015,08,13,03,20,17.90
2015,08,13,03,21,17.80
2015,08,13,03,22,17.80
2015,08,13,03,23,17.80
2015,08,13,03,24,17.80
2015,08,13,03,25,17.80
2015,08,13,03,26,17.80
2015,08,13,03,27,17.70
2015,08,13,03,28,17.70
2015,08,13,03,29,17.70
2015,08,13,03,30,17.70
2015,08,13,03,31,17.70
2015,08,13,03,32,17.70
2015,08,13,03,33,17.70
2015,08,13,03,34,17.70
2015,08,13,03,35,17.70
2015,08,13,03,36,17.60
2015,08,13,03,37,17.60
2015,08,13,03,38,17.70
2015,08,13,03,39,17.70
2015,08,13,03,40,17.70
2015,08,13,03,41,17.70
2015,08,13,03,42,17.70
2015,08,13,03,43,17.70
2015,08,13,03,44,17.70
2015,08,13,03,45,17.70
2015,08,13,03,46,17.70
2015,08,13,03,47,17.70
2015,08,13,03,48,17.70
2015,08,13,03,49,17.70
2015,08,13,03,50,17.70
2015,08,13,03,51,17.70
2015,08,13,03,52,17.60
2015,08,13,03,53,17.60
2015,08,13,03,54,17.60
2015,08,13,03,55,17.60
2015,08,13,03,56,17.60
2015,08,13,03,57,17.50
2015,08,13,03,58,17.50
2015,08,13,03,59,17.50
2015,08,13,04,00,17.50
2015,08,13,04,01,17.40
2015,08,13,04,02,17.40
2015,08,13,04,03,17.40
2015,08,13,04,04,17.40
2015,08,13,04,05,17.30
2015,08,13,04,06,17.30
2015,08,13,04,07,17.30
2015,08,13,04,08,17.30
2015,08,13,04,09,17.30
2015,08,13,04,10,17.30
2015,08,13,04,11,17.20
2015,08,13,04,12,17.20
2015,08,13,04,13,17.20
2015,08,13,04,14,17.20
2015,08,13,04,15,17.20
2015,08,13,04,16,17.20
2015,08,13,04,17,17.20
2015,08,13,04,18,17.20
2015,08,13,04,19,17.20
2015,08,13,04,20,17.10
2015,08,13,04,21,17.10
2015,08,13,04,22,17.10
2015,08,13,04,23,17.10
2015,08,13,04,24,17.10
2015,08,13,04,25,17.10
2015,08,13,04,26,17.10
2015,08,13,04,27,17.10
2015,08,13,04,28,17.10
2015,08,13,04,29,17.00
2015,08,13,04,30,17.00
2015,08,13,04,31,17.00
2015,08,13,04,32,17.00
2015,08,13,04,33,17.00
2015,08,13,04,34,17.00
2015,08,13,04,35,17.00
2015,08,13,04,36,17.00
2015,08,13,04,37,17.10
2015,08,13,04,38,17.10
2015,08,13,04,39,17.10
2015,08,13,04,40,17.10
2015,08,13,04,41,17.10
2015,08,13,04,42,17.10
2015,08,13,04,43,17.10
2015,08,13,04,44,17.10
2015,08,13,04,45,17.10
2015,08,13,04,46,17.10
2015,08,13,04,47,17.10
2015,08,13,04,48,17.20
2015,08,13,04,49,17.20
2015,08,13,04,50,17.20
2015,08,13,04,51,17.20
2015,08,13,04,52,17.20
2015,08,13,04,53,17.20
2015,08,13,04,54,17.20
2015,08,13,04,55,17.20
2015,08,13,04,56,17.20
2015,08,13,04,57,17.20
2015,08,13,04,58,17.20
2015,08,13,04,59,17.20
2015,08,13,05,00,17.20
2015,08,13,05,01,17.10
2015,08,13,05,02,17.10
2015,08,13,05,03,17.10
2015,08,13,05,04,17.10
2015,08,13,05,05,17.10
2015,08,13,05,06,17.10
2015,08,13,05,07,17.10
2015,08,13,05,08,17.10
2015,08,13,05,09,17.10
2015,08,13,05,10,17.10
2015,08,13,05,11,17.10
2015,08,13,05,12,17.10
2015,08,13,05,13,17.10
2015,08,13,05,14,17.10
2015,08,13,05,15,17.10
2015,08,13,05,16,17.10
2015,08,13,05,17,17.10
2015,08,13,05,18,17.10
2015,08,13,05,19,17.10
2015,08,13,05,20,17.10
2015,08,13,05,21,17.10
2015,08,13,05,22,17.10
2015,08,13,05,23,17.10
2015,08,13,05,24,17.10
2015,08,13,05,25,17.10
2015,08,13,05,26,17.10
2015,08,13,05,27,17.10
2015,08,13,05,28,17.10
2015,08,13,05,29,17.10
2015,08,13,05,30,17.00
2015,08,13,05,31,17.00
2015,08,13,05,32,17.00
2015,08,13,05,33,16.90
2015,08,13,05,34,16.90
2015,08,13,05,35,16.90
2015,08,13,05,36,16.90
2015,08,13,05,37,16.80
2015,08,13,05,38,16.80
2015,08,13,05,39,16.80
2015,08,13,05,40,16.80
2015,08,13,05,41,16.80
2015,08,13,05,42,16.80
2015,08,13,05,43,16.70
2015,08,13,05,44,16.70
2015,08,13,05,45,16.70
2015,08,13,05,46,16.70
2015,08,13,05,47,16.70
2015,08,13,05,48,16.70
2015,08,13,05,49,16.60
2015,08,13,05,50,16.60
2015,08,13,05,51,16.60
2015,08,13,05,52,16.60
2015,08,13,05,53,16.60
2015,08,13,05,54,16.50
2015,08,13,05,55,16.50
2015,08,13,05,56,16.50
2015,08,13,05,57,16.50
2015,08,13,05,58,16.40
2015,08,13,05,59,16.40
2015,08,13,06,00,16.40
2015,08,13,06,01,16.40
2015,08,13,06,02,16.40
2015,08,13,06,03,16.40
2015,08,13,06,04,16.40
2015,08,13,06,05,16.40
2015,08,13,06,06,16.40
2015,08,13,06,07,16.40
2015,08,13,06,08,16.40
2015,08,13,06,09,16.40
2015,08,13,06,10,16.40
2015,08,13,06,11,16.40
2015,08,13,06,12,16.40
2015,08,13,06,13,16.40
2015,08,13,06,14,16.40
2015,08,13,06,15,16.40
2015,08,13,06,16,16.40
2015,08,13,06,17,16.40
2015,08,13,06,18,16.40
2015,08,13,06,19,16.40
2015,08,13,06,20,16.40
2015,08,13,06,21,16.40
2015,08,13,06,22,16.30
2015,08,13,06,23,16.30
2015,08,13,06,24,16.30
2015,08,13,06,25,16.30
2015,08,13,06,26,16.30
2015,08,13,06,27,16.30
2015,08,13,06,28,16.30
2015,08,13,06,29,16.30
2015,08,13,06,30,16.30
2015,08,13,06,31,16.30
2015,08,13,06,32,16.30
2015,08,13,06,33,16.30
2015,08,13,06,34,16.30
2015,08,13,06,35,16.30
2015,08,13,06,36,16.30
2015,08,13,06,37,16.30
2015,08,13,06,38,16.30
2015,08,13,06,39,16.20
2015,08,13,06,40,16.20
2015,08,13,06,41,16.20
2015,08,13,06,42,16.20
2015,08,13,06,43,16.20
2015,08,13,06,44,16.20
2015,08,13,06,45,16.20
2015,08,13,06,46,16.20
2015,08,13,06,47,16.20
2015,08,13,06,48,16.20
2015,08,13,06,49,16.20
2015,08,13,06,50,16.20
2015,08,13,06,51,16.30
2015,08,13,06,52,16.30
2015,08,13,06,53,16.30
2015,08,13,06,54,16.30
2015,08,13,06,55,16.30
2015,08,13,06,56,16.30
2015,08,13,06,57,16.30
2015,08,13,06,58,16.40
2015,08,13,06,59,16.40
2015,08,13,07,00,16.40
2015,08,13,07,01,16.40
2015,08,13,07,02,16.50
2015,08,13,07,03,16.50
2015,08,13,07,04,16.50
2015,08,13,07,05,16.60
2015,08,13,07,06,16.60
2015,08,13,07,07,16.60
2015,08,13,07,08,16.60
2015,08,13,07,09,16.70
2015,08,13,07,10,16.70
2015,08,13,07,11,16.70
2015,08,13,07,12,16.70
2015,08,13,07,13,16.70
2015,08,13,07,14,16.70
2015,08,13,07,15,16.70
2015,08,13,07,16,16.80
2015,08,13,07,17,16.80
2015,08,13,07,18,16.90
2015,08,13,07,19,16.90
2015,08,13,07,20,16.90
2015,08,13,07,21,16.90
2015,08,13,07,22,17.00
2015,08,13,07,23,17.10
2015,08,13,07,24,17.10
2015,08,13,07,25,17.10
2015,08,13,07,26,17.10
2015,08,13,07,27,17.20
2015,08,13,07,28,17.20
2015,08,13,07,29,17.20
2015,08,13,07,30,17.20
2015,08,13,07,31,17.20
2015,08,13,07,32,17.20
2015,08,13,07,33,17.20
2015,08,13,07,34,17.20
2015,08,13,07,35,17.20
2015,08,13,07,36,17.30
2015,08,13,07,37,17.30
2015,08,13,07,38,17.30
2015,08,13,07,39,17.30
2015,08,13,07,40,17.30
2015,08,13,07,41,17.30
2015,08,13,07,42,17.30
2015,08,13,07,43,17.30
2015,08,13,07,44,17.30
2015,08,13,07,45,17.40
2015,08,13,07,46,17.40
2015,08,13,07,47,17.40
2015,08,13,07,48,17.50
2015,08,13,07,49,17.60
2015,08,13,07,50,17.70
2015,08,13,07,51,17.80
2015,08,13,07,52,17.90
2015,08,13,07,53,17.90
2015,08,13,07,54,18.00
2015,08,13,07,55,18.10
2015,08,13,07,56,18.20
2015,08,13,07,57,18.20
2015,08,13,07,58,18.30
2015,08,13,07,59,18.30
2015,08,13,08,00,18.40
2015,08,13,08,01,18.40
2015,08,13,08,02,18.50
2015,08,13,08,03,18.50
2015,08,13,08,04,18.60
2015,08,13,08,05,18.70
2015,08,13,08,06,18.70
2015,08,13,08,07,18.70
2015,08,13,08,08,18.80
2015,08,13,08,09,18.80
2015,08,13,08,10,18.90
2015,08,13,08,11,18.90
2015,08,13,08,12,19.00
2015,08,13,08,13,19.00
2015,08,13,08,14,19.00
2015,08,13,08,15,19.00
2015,08,13,08,16,19.00
2015,08,13,08,17,19.00
2015,08,13,08,18,19.00
2015,08,13,08,19,19.10
2015,08,13,08,20,19.10
2015,08,13,08,21,19.10
2015,08,13,08,22,19.10
2015,08,13,08,23,19.20
2015,08,13,08,24,19.20
2015,08,13,08,25,19.20
2015,08,13,08,26,19.20
2015,08,13,08,27,19.20
2015,08,13,08,28,19.30
2015,08,13,08,29,19.30
2015,08,13,08,30,19.30
2015,08,13,08,31,19.30
2015,08,13,08,32,19.30
2015,08,13,08,33,19.40
2015,08,13,08,34,19.40
2015,08,13,08,35,19.40
2015,08,13,08,36,19.50
2015,08,13,08,37,19.50
2015,08,13,08,38,19.50
2015,08,13,08,39,19.60
2015,08,13,08,40,19.60
2015,08,13,08,41,19.60
2015,08,13,08,42,19.70
2015,08,13,08,43,19.80
2015,08,13,08,44,19.80
2015,08,13,08,45,19.80
2015,08,13,08,46,19.80
2015,08,13,08,47,19.80
2015,08,13,08,48,19.90
2015,08,13,08,49,19.90
2015,08,13,08,50,19.90
2015,08,13,08,51,20.00
2015,08,13,08,52,20.00
2015,08,13,08,53,20.00
2015,08,13,08,54,20.10
2015,08,13,08,55,20.10
2015,08,13,08,56,20.10
2015,08,13,08,57,20.20
2015,08,13,08,58,20.20
2015,08,13,08,59,20.20
2015,08,13,09,00,20.30
2015,08,13,09,01,20.30
2015,08,13,09,02,20.30
2015,08,13,09,03,20.30
2015,08,13,09,04,20.40
2015,08,13,09,05,20.50
2015,08,13,09,06,20.50
2015,08,13,09,07,20.60
2015,08,13,09,08,20.60
2015,08,13,09,09,20.60
2015,08,13,09,10,20.60
2015,08,13,09,11,20.70
2015,08,13,09,12,20.70
2015,08,13,09,13,20.70
2015,08,13,09,14,20.70
2015,08,13,09,15,20.80
2015,08,13,09,16,20.90
2015,08,13,09,17,20.90
2015,08,13,09,18,21.00
2015,08,13,09,19,21.00
2015,08,13,09,20,21.00
2015,08,13,09,21,21.00
2015,08,13,09,22,21.00
2015,08,13,09,23,21.00
2015,08,13,09,24,21.00
2015,08,13,09,25,21.00
2015,08,13,09,26,21.00
2015,08,13,09,27,21.10
2015,08,13,09,28,21.10
2015,08,13,09,29,21.10
2015,08,13,09,30,21.20
2015,08,13,09,31,21.20
2015,08,13,09,32,21.20
2015,08,13,09,33,21.20
2015,08,13,09,34,21.20
2015,08,13,09,35,21.30
2015,08,13,09,36,21.30
2015,08,13,09,37,21.30
2015,08,13,09,38,21.30
2015,08,13,09,39,21.30
2015,08,13,09,40,21.30
2015,08,13,09,41,21.40
2015,08,13,09,42,21.50
2015,08,13,09,43,21.60
2015,08,13,09,44,21.60
2015,08,13,09,45,21.70
2015,08,13,09,46,21.80
2015,08,13,09,47,21.90
2015,08,13,09,48,22.00
2015,08,13,09,49,22.10
2015,08,13,09,50,22.20
2015,08,13,09,51,22.30
2015,08,13,09,52,22.40
2015,08,13,09,53,22.40
2015,08,13,09,54,22.50
2015,08,13,09,55,22.40
2015,08,13,09,56,22.40
2015,08,13,09,57,22.40
2015,08,13,09,58,22.50
2015,08,13,09,59,22.50
2015,08,13,10,00,22.50
2015,08,13,10,01,22.50
2015,08,13,10,02,22.50
2015,08,13,10,03,22.50
2015,08,13,10,04,22.60
2015,08,13,10,05,22.60
2015,08,13,10,06,22.60
2015,08,13,10,07,22.70
2015,08,13,10,08,22.70
2015,08,13,10,09,22.80
2015,08,13,10,10,22.80
2015,08,13,10,11,22.80
2015,08,13,10,12,22.80
2015,08,13,10,13,22.70
2015,08,13,10,14,22.80
2015,08,13,10,15,22.80
2015,08,13,10,16,22.90
2015,08,13,10,17,23.00
2015,08,13,10,18,23.10
2015,08,13,10,19,23.20
2015,08,13,10,20,23.20
2015,08,13,10,21,23.20
2015,08,13,10,22,23.20
2015,08,13,10,23,23.10
2015,08,13,10,24,23.00
2015,08,13,10,25,22.90
2015,08,13,10,26,22.80
2015,08,13,10,27,22.70
2015,08,13,10,28,22.70
2015,08,13,10,29,22.70
2015,08,13,10,30,22.70
2015,08,13,10,31,22.70
2015,08,13,10,32,22.70
2015,08,13,10,33,22.70
2015,08,13,10,34,22.70
2015,08,13,10,35,22.80
2015,08,13,10,36,22.90
2015,08,13,10,37,22.90
2015,08,13,10,38,23.00
2015,08,13,10,39,23.00
2015,08,13,10,40,23.00
2015,08,13,10,41,23.00
2015,08,13,10,42,23.10
2015,08,13,10,43,23.10
2015,08,13,10,44,23.10
2015,08,13,10,45,23.00
2015,08,13,10,46,22.90
2015,08,13,10,47,22.90
2015,08,13,10,48,22.80
2015,08,13,10,49,22.80
2015,08,13,10,50,22.70
2015,08,13,10,51,22.60
2015,08,13,10,52,22.50
2015,08,13,10,53,22.50
2015,08,13,10,54,22.40
2015,08,13,10,55,22.40
2015,08,13,10,56,22.40
2015,08,13,10,57,22.40
2015,08,13,10,58,22.40
2015,08,13,10,59,22.40
2015,08,13,11,00,22.50
2015,08,13,11,01,22.50
2015,08,13,11,02,22.60
2015,08,13,11,03,22.70
2015,08,13,11,04,22.70
2015,08,13,11,05,22.70
2015,08,13,11,06,22.70
2015,08,13,11,07,22.70
2015,08,13,11,08,22.70
2015,08,13,11,09,22.70
2015,08,13,11,10,22.70
2015,08,13,11,11,22.70
2015,08,13,11,12,22.70
2015,08,13,11,13,22.80
2015,08,13,11,14,22.80
2015,08,13,11,15,22.80
2015,08,13,11,16,22.80
2015,08,13,11,17,22.70
2015,08,13,11,18,22.80
2015,08,13,11,19,22.80
2015,08,13,11,20,22.90
2015,08,13,11,21,23.00
2015,08,13,11,22,23.10
2015,08,13,11,23,23.10
2015,08,13,11,24,23.10
2015,08,13,11,25,23.20
2015,08,13,11,26,23.20
2015,08,13,11,27,23.30
2015,08,13,11,28,23.40
2015,08,13,11,29,23.50
2015,08,13,11,30,23.60
2015,08,13,11,31,23.70
2015,08,13,11,32,23.80
2015,08,13,11,33,23.90
2015,08,13,11,34,24.00
2015,08,13,11,35,24.00
2015,08,13,11,36,24.00
2015,08,13,11,37,24.00
2015,08,13,11,38,24.00
2015,08,13,11,39,24.00
2015,08,13,11,40,24.00
2015,08,13,11,41,24.00
2015,08,13,11,42,24.10
2015,08,13,11,43,24.10
2015,08,13,11,44,24.10
2015,08,13,11,45,24.10
2015,08,13,11,46,24.10
2015,08,13,11,47,24.10
2015,08,13,11,48,24.00
2015,08,13,11,49,23.90
2015,08,13,11,50,23.80
2015,08,13,11,51,23.80
2015,08,13,11,52,23.70
2015,08,13,11,53,23.70
2015,08,13,11,54,23.70
2015,08,13,11,55,23.70
2015,08,13,11,56,23.70
2015,08,13,11,57,23.70
2015,08,13,11,58,23.70
2015,08,13,11,59,23.60
2015,08,13,12,00,23.60
2015,08,13,12,01,23.50
2015,08,13,12,02,23.50
2015,08,13,12,03,23.40
2015,08,13,12,04,23.40
2015,08,13,12,05,23.30
2015,08,13,12,06,23.30
2015,08,13,12,07,23.30
2015,08,13,12,08,23.30
2015,08,13,12,09,23.30
2015,08,13,12,10,23.30
2015,08,13,12,11,23.20
2015,08,13,12,12,23.20
2015,08,13,12,13,23.10
2015,08,13,12,14,23.10
2015,08,13,12,15,23.10
2015,08,13,12,16,23.10
2015,08,13,12,17,23.10
2015,08,13,12,18,23.20
2015,08,13,12,19,23.20
2015,08,13,12,20,23.30
2015,08,13,12,21,23.40
2015,08,13,12,22,23.40
2015,08,13,12,23,23.50
2015,08,13,12,24,23.50
2015,08,13,12,25,23.60
2015,08,13,12,26,23.60
2015,08,13,12,27,23.60
2015,08,13,12,28,23.60
2015,08,13,12,29,23.70
2015,08,13,12,30,23.70
2015,08,13,12,31,23.70
2015,08,13,12,32,23.80
2015,08,13,12,33,23.90
2015,08,13,12,34,23.90
2015,08,13,12,35,23.90
2015,08,13,12,36,24.00
2015,08,13,12,37,24.10
2015,08,13,12,38,24.20
2015,08,13,12,39,24.20
2015,08,13,12,40,24.20
2015,08,13,12,41,24.30
2015,08,13,12,42,24.40
2015,08,13,12,43,24.40
2015,08,13,12,44,24.50
2015,08,13,12,45,24.60
2015,08,13,12,46,24.60
2015,08,13,12,47,24.60
2015,08,13,12,48,24.60
2015,08,13,12,49,24.60
2015,08,13,12,50,24.70
2015,08,13,12,51,24.70
2015,08,13,12,52,24.70
2015,08,13,12,53,24.70
2015,08,13,12,54,24.80
2015,08,13,12,55,24.80
2015,08,13,12,56,24.80
2015,08,13,12,57,24.80
2015,08,13,12,58,24.90
2015,08,13,12,59,24.90
2015,08,13,13,00,24.80
2015,08,13,13,01,24.80
2015,08,13,13,02,24.80
2015,08,13,13,03,24.90
2015,08,13,13,04,25.00
2015,08,13,13,05,25.10
2015,08,13,13,06,25.20
2015,08,13,13,07,25.30
2015,08,13,13,08,25.30
2015,08,13,13,09,25.30
2015,08,13,13,10,25.30
2015,08,13,13,11,25.30
2015,08,13,13,12,25.20
2015,08,13,13,13,25.20
2015,08,13,13,14,25.20
2015,08,13,13,15,25.20
2015,08,13,13,16,25.20
2015,08,13,13,17,25.30
2015,08,13,13,18,25.40
2015,08,13,13,19,25.40
2015,08,13,13,20,25.40
2015,08,13,13,21,25.40
2015,08,13,13,22,25.40
2015,08,13,13,23,25.30
2015,08,13,13,24,25.30
2015,08,13,13,25,25.20
2015,08,13,13,26,25.20
2015,08,13,13,27,25.10
2015,08,13,13,28,25.00
2015,08,13,13,29,24.90
2015,08,13,13,30,24.70
2015,08,13,13,31,24.60
2015,08,13,13,32,24.60
2015,08,13,13,33,24.60
2015,08,13,13,34,24.60
2015,08,13,13,35,24.60
2015,08,13,13,36,24.60
2015,08,13,13,37,24.60
2015,08,13,13,38,24.50
2015,08,13,13,39,24.40
2015,08,13,13,40,24.30
2015,08,13,13,41,24.20
2015,08,13,13,42,24.10
2015,08,13,13,43,24.10
2015,08,13,13,44,24.20
2015,08,13,13,45,24.20
2015,08,13,13,46,24.10
2015,08,13,13,47,24.10
2015,08,13,13,48,24.10
2015,08,13,13,49,24.10
2015,08,13,13,50,24.10
2015,08,13,13,51,24.10
2015,08,13,13,52,24.10
2015,08,13,13,53,24.10
2015,08,13,13,54,24.10
2015,08,13,13,55,24.20
2015,08,13,13,56,24.20
2015,08,13,13,57,24.10
2015,08,13,13,58,24.10
2015,08,13,13,59,24.10
2015,08,13,14,00,24.10
2015,08,13,14,01,24.20
2015,08,13,14,02,24.10
2015,08,13,14,03,24.10
2015,08,13,14,04,24.20
2015,08,13,14,05,24.20
2015,08,13,14,06,24.20
2015,08,13,14,07,24.30
2015,08,13,14,08,24.40
2015,08,13,14,09,24.40
2015,08,13,14,10,24.40
2015,08,13,14,11,24.40
2015,08,13,14,12,24.40
2015,08,13,14,13,24.50
2015,08,13,14,14,24.60
2015,08,13,14,15,24.60
2015,08,13,14,16,24.70
2015,08,13,14,17,24.70
2015,08,13,14,18,24.80
2015,08,13,14,19,24.80
2015,08,13,14,20,24.70
2015,08,13,14,21,24.80
2015,08,13,14,22,24.80
2015,08,13,14,23,24.80
2015,08,13,14,24,24.90
2015,08,13,14,25,24.90
2015,08,13,14,26,24.90
2015,08,13,14,27,24.90
2015,08,13,14,28,24.90
2015,08,13,14,29,24.90
2015,08,13,14,30,24.90
2015,08,13,14,31,24.90
2015,08,13,14,32,24.90
2015,08,13,14,33,25.00
2015,08,13,14,34,25.00
2015,08,13,14,35,25.10
2015,08,13,14,36,25.10
2015,08,13,14,37,25.10
2015,08,13,14,38,25.20
2015,08,13,14,39,25.20
2015,08,13,14,40,25.30
2015,08,13,14,41,25.40
2015,08,13,14,42,25.40
2015,08,13,14,43,25.40
2015,08,13,14,44,25.40
2015,08,13,14,45,25.40
2015,08,13,14,46,25.40
2015,08,13,14,47,25.50
2015,08,13,14,48,25.50
2015,08,13,14,49,25.40
2015,08,13,14,50,25.40
2015,08,13,14,51,25.40
2015,08,13,14,52,25.40
2015,08,13,14,53,25.40
2015,08,13,14,54,25.40
2015,08,13,14,55,25.40
2015,08,13,14,56,25.40
2015,08,13,14,57,25.40
2015,08,13,14,58,25.50
2015,08,13,14,59,25.60
2015,08,13,15,00,25.60
2015,08,13,15,01,25.70
2015,08,13,15,02,25.70
2015,08,13,15,03,25.70
2015,08,13,15,04,25.70
2015,08,13,15,05,25.70
2015,08,13,15,06,25.70
2015,08,13,15,07,25.70
2015,08,13,15,08,25.70
2015,08,13,15,09,25.60
2015,08,13,15,10,25.60
2015,08,13,15,11,25.60
2015,08,13,15,12,25.60
2015,08,13,15,13,25.50
2015,08,13,15,14,25.50
2015,08,13,15,15,25.50
2015,08,13,15,16,25.40
2015,08,13,15,17,25.40
2015,08,13,15,18,25.40
2015,08,13,15,19,25.40
2015,08,13,15,20,25.40
2015,08,13,15,21,25.50
2015,08,13,15,22,25.50
2015,08,13,15,23,25.50
2015,08,13,15,24,25.50
2015,08,13,15,25,25.40
2015,08,13,15,26,25.40
2015,08,13,15,27,25.30
2015,08,13,15,28,25.30
2015,08,13,15,29,25.30
2015,08,13,15,30,25.30
2015,08,13,15,31,25.30
2015,08,13,15,32,25.30
2015,08,13,15,33,25.30
2015,08,13,15,34,25.30
2015,08,13,15,35,25.30
2015,08,13,15,36,25.30
2015,08,13,15,37,25.30
2015,08,13,15,38,25.40
2015,08,13,15,39,25.50
2015,08,13,15,40,25.50
2015,08,13,15,41,25.60
2015,08,13,15,42,25.60
2015,08,13,15,43,25.50
2015,08,13,15,44,25.50
2015,08,13,15,45,25.40
2015,08,13,15,46,25.40
2015,08,13,15,47,25.40
2015,08,13,15,48,25.30
2015,08,13,15,49,25.30
2015,08,13,15,50,25.20
2015,08,13,15,51,25.20
2015,08,13,15,52,25.20
2015,08,13,15,53,25.20
2015,08,13,15,54,25.20
2015,08,13,15,55,25.20
2015,08,13,15,56,25.20
2015,08,13,15,57,25.10
2015,08,13,15,58,25.10
2015,08,13,15,59,25.20
2015,08,13,16,00,25.20
2015,08,13,16,01,25.30
2015,08,13,16,02,25.30
2015,08,13,16,03,25.30
2015,08,13,16,04,25.30
2015,08,13,16,05,25.30
2015,08,13,16,06,25.30
2015,08,13,16,07,25.20
2015,08,13,16,08,25.20
2015,08,13,16,09,25.10
2015,08,13,16,10,25.10
2015,08,13,16,11,25.10
2015,08,13,16,12,25.10
2015,08,13,16,13,25.20
2015,08,13,16,14,25.20
2015,08,13,16,15,25.30
2015,08,13,16,16,25.20
2015,08,13,16,17,25.20
2015,08,13,16,18,25.20
2015,08,13,16,19,25.20
2015,08,13,16,20,25.20
2015,08,13,16,21,25.20
2015,08,13,16,22,25.20
2015,08,13,16,23,25.20
2015,08,13,16,24,25.30
2015,08,13,16,25,25.30
2015,08,13,16,26,25.40
2015,08,13,16,27,25.40
2015,08,13,16,28,25.40
2015,08,13,16,29,25.40
2015,08,13,16,30,25.40
2015,08,13,16,31,25.40
2015,08,13,16,32,25.40
2015,08,13,16,33,25.50
2015,08,13,16,34,25.50
2015,08,13,16,35,25.60
2015,08,13,16,36,25.60
2015,08,13,16,37,25.60
2015,08,13,16,38,25.70
2015,08,13,16,39,25.70
2015,08,13,16,40,25.80
2015,08,13,16,41,25.80
2015,08,13,16,42,25.80
2015,08,13,16,43,25.90
2015,08,13,16,44,26.00
2015,08,13,16,45,26.10
2015,08,13,16,46,26.10
2015,08,13,16,47,26.20
2015,08,13,16,48,26.20
2015,08,13,16,49,26.30
2015,08,13,16,50,26.30
2015,08,13,16,51,26.30
2015,08,13,16,52,26.30
2015,08,13,16,53,26.30
2015,08,13,16,54,26.30
2015,08,13,16,55,26.30
2015,08,13,16,56,26.30
2015,08,13,16,57,26.30
2015,08,13,16,58,26.30
2015,08,13,16,59,26.30
2015,08,13,17,00,26.30
2015,08,13,17,01,26.30
2015,08,13,17,02,26.30
2015,08,13,17,03,26.30
2015,08,13,17,04,26.40
2015,08,13,17,05,26.40
2015,08,13,17,06,26.40
2015,08,13,17,07,26.50
2015,08,13,17,08,26.50
2015,08,13,17,09,26.50
2015,08,13,17,10,26.50
2015,08,13,17,11,26.50
2015,08,13,17,12,26.50
2015,08,13,17,13,26.50
2015,08,13,17,14,26.50
2015,08,13,17,15,26.50
2015,08,13,17,16,26.40
2015,08,13,17,17,26.40
2015,08,13,17,18,26.40
2015,08,13,17,19,26.40